Home   Weather   Spa   Past weeks

Flag for Belgium Past Weather in Spa, Belgium — Yesterday and Last 2 Weeks

Now
27 °F

Sunny.


Feels Like: 18 °F
Forecast: 9 / 24 °F
Wind: 9 mph from Southeast

Location: Spa / La Sauveniere

Current Time: Jan 19, 2017 at 12:13:24 pm

Latest Report: Jan 19, 2017 at 11:00 am


Visibility: 22 mi

Pressure: 30.61 "Hg

Humidity: 58%

Dew Point: 14 °F

Location of SpaLocation

Past Weather in Spa — Graph

°F

Spa Temperature Yesterday

Maximum temperature yesterday: 30 °F (at 2:00 pm)
Minimum temperature yesterday: 18 °F (at 12:00 am)
Average temperature yesterday: 22 °F

High & Low Weather Summary for the Past Weeks

 TemperatureHumidityPressure
High41 °F (Jan 11, 4:00 pm)100% (Jan 8, 2:00 am)30.77 "Hg (Jan 8, 2:00 am)
Low15 °F (Jan 17, 8:00 am)59% (Jan 19, 4:00 am)28.97 "Hg (Jan 13, 1:00 am)
Average29 °F91%30.23 "Hg
* Reported Jan 4 10:00 am — Jan 19 10:00 am, Spa, Weather by CustomWeather, © 2017

Note: Actual official high and low records may vary slightly from our data, if they occured in-between our weather recording intervals... More about our weather records

Advertising

Spa Weather History for the Previous 24 Hours

Scroll right to see more
 ConditionsComfort  
Time TempWeatherWind HumidityBarometerVisibility
10:00 am
Thu, Jan 19
26 °FSunny.9 mph59%30.61 "Hg25 mi
9:00 am25 °FSunny.10 mph65%30.60 "Hg25 mi
8:00 am23 °FClear.10 mph63%30.60 "Hg19 mi
7:00 am24 °FClear.9 mph63%30.60 "Hg25 mi
6:00 am25 °FClear.9 mph66%30.59 "Hg28 mi
5:00 am26 °FClear.9 mph61%30.59 "Hg28 mi
4:00 am25 °FClear.9 mph59%30.60 "Hg28 mi
3:00 am25 °FClear.8 mph63%30.60 "Hg28 mi
2:00 am25 °FClear.8 mph61%30.61 "Hg28 mi
1:00 am23 °FClear.7 mph64%30.62 "Hg25 mi
12:00 am24 °FClear.7 mph70%30.62 "Hg28 mi
11:00 pm
Wed, Jan 18
24 °FClear.6 mph62%30.63 "Hg28 mi
10:00 pm20 °FClear.N/A79%30.65 "Hg19 mi
9:00 pm19 °FClear.No wind81%30.66 "Hg15 mi
8:00 pm19 °FClear.No wind80%30.66 "Hg25 mi
7:00 pm21 °FClear.1 mph80%30.66 "Hg25 mi
6:00 pm22 °FClear.1 mph82%30.66 "Hg16 mi
5:00 pm23 °FSunny.N/A82%30.67 "Hg17 mi
4:00 pm26 °FSunny.1 mph79%30.66 "Hg12 mi
3:00 pm28 °FSunny.2 mph75%30.64 "HgN/A
2:00 pm30 °FSunny.No wind78%30.64 "Hg14 mi
1:00 pm24 °FSunny.2 mph78%30.67 "Hg12 mi
12:00 pm23 °FSunny.1 mph77%30.67 "Hg15 mi
Weather by CustomWeather, © 2017

See weather overviewHow to use our weather pages